STARLINK-36145

Last updated on Fri Dec 19 2025 00:02:09 GMT+0000 (Coordinated Universal Time)

1 66983U 25288AA 25352.58336806 -.01542640 00000+0 -67421-2 0 9998 2 66983 43.0013 131.2819 0001614 270.4331 350.0244 15.86389861 2771
UTC large
Height (km)
Speed (km/s)
/
Latitude / Longitude
Inclination (degrees)
Orbital Period (minutes)
Azimuth
Elevation
Range (km)
Doppler Factor

Next 0 passes for location: London (51.5072 / 0.1276)

Sorry there are no passes over London.